Weather History for KOBE - January, 2013

Change the Weather History Date:

Saturday, January 19, 2013

  Actual Average (KVRB) Record (KVRB)
Temperature  
Mean Temperature 66 °F 62 °F  
Max Temperature 73 °F 72 °F 88 °F (1943)
Min Temperature 60 °F 52 °F 29 °F (1981)
Degree Days  
Heating Degree Days 0 5  
Month to date heating degree days 95  
Since 1 July heating degree days 230  
Cooling Degree Days 2 2  
Month to date cooling degree days 38  
Year to date cooling degree days 38  
Growing Degree Days 16 (Base 50)    
Moisture  
Dew Point 63 °F    
Average Humidity 93    
Maximum Humidity 100    
Minimum Humidity 73    
Precipitation  
Precipitation 0.29 in 0.08 in 0.88 in (1954)
Month to date precipitation 1.52  
Year to date precipitation 1.52  
Sea Level Pressure  
Sea Level Pressure 30.18 in    
Wind  
Wind Speed 5 mph (NNE)    
Max Wind Speed 10 mph    
Max Gust Speed -    
Visibility 8 miles    
Events Rain    
T = Trace of Precipitation, MM = Missing Value Source: NWS Daily Summary

Daily Weather History Graph

Daily Weather History Graph

Search for Another Location

Airport or City:

Trip Planner

Search our weather history database for the weather conditions in past years. The results will help you decide how hot, cold, wet, or windy it might be!

Date:

Astronomy

Jan. 19, 2013 Rise Set
Actual Time 7:13 AM EST 5:54 PM EST
Civil Twilight 6:49 AM EST 6:19 PM EST
Nautical Twilight 6:20 AM EST 6:48 PM EST
Astronomical Twilight 5:52 AM EST 7:16 PM EST
Moon 12:14 PM EST (1/19) 12:54 AM EST (1/19)
Length of Visible Light 11h 30m
Length of Day
10h 40m
First Quarter, 57% of the Moon is Illuminated
Jan 19
First Quarter
Jan 26
Full
Feb 3
Last Quarter
Feb 10
New
Feb 17
First Quarter

Hourly Weather History & Observations

Time (EST) Temp. Dew Point Humidity Pressure Visibility Wind Dir Wind Speed Gust Speed Precip Events Conditions
12:15 AM 60.8 °F 60.8 °F 100% 30.22 in 10.0 mi NNW 3.5 mph - N/A   Overcast
12:35 AM 60.8 °F 60.8 °F 100% 30.22 in 10.0 mi North 4.6 mph - N/A   Scattered Clouds
12:55 AM 60.8 °F 60.8 °F 100% 30.22 in 10.0 mi North 5.8 mph - N/A   Mostly Cloudy
1:15 AM 62.6 °F 60.8 °F 94% 30.21 in 10.0 mi Calm Calm - N/A   Light Drizzle
1:35 AM 62.6 °F 60.8 °F 94% 30.21 in 10.0 mi Calm Calm - N/A   Light Drizzle
1:55 AM 62.6 °F 60.8 °F 94% 30.21 in 10.0 mi Calm Calm - 0.02 in   Overcast
2:15 AM 62.6 °F 60.8 °F 94% 30.20 in 10.0 mi NW 3.5 mph - N/A   Overcast
2:35 AM 62.6 °F 60.8 °F 94% 30.19 in 10.0 mi North 4.6 mph - N/A   Overcast
2:55 AM 62.6 °F 60.8 °F 94% 30.20 in 7.0 mi NNE 6.9 mph - N/A Rain Rain
3:15 AM 62.6 °F 60.8 °F 94% 30.20 in 7.0 mi North 4.6 mph - 0.11 in Rain Light Rain
3:35 AM 62.6 °F 60.8 °F 94% 30.20 in 10.0 mi North 6.9 mph - 0.11 in   Mostly Cloudy
3:55 AM 62.6 °F 60.8 °F 94% 30.19 in 10.0 mi North 6.9 mph - 0.11 in   Mostly Cloudy
4:15 AM 62.6 °F 60.8 °F 94% 30.19 in 10.0 mi North 8.1 mph - N/A   Mostly Cloudy
4:35 AM 62.6 °F 60.8 °F 94% 30.19 in 10.0 mi North 9.2 mph - N/A   Overcast
4:55 AM 62.6 °F 60.8 °F 94% 30.19 in 10.0 mi North 10.4 mph - N/A   Mostly Cloudy
5:15 AM 62.6 °F 60.8 °F 94% 30.19 in 10.0 mi North 5.8 mph - N/A Rain Light Rain
5:35 AM 62.6 °F 60.8 °F 94% 30.19 in 7.0 mi North 10.4 mph - 0.01 in Rain Light Rain
5:55 AM 60.8 °F 60.8 °F 100% 30.20 in 10.0 mi North 6.9 mph - 0.01 in   Scattered Clouds
6:15 AM 62.6 °F 60.8 °F 94% 30.20 in 10.0 mi North 6.9 mph - N/A   Mostly Cloudy
6:35 AM 60.8 °F 60.8 °F 100% 30.20 in 10.0 mi North 6.9 mph - N/A   Scattered Clouds
6:55 AM 60.8 °F 60.8 °F 100% 30.21 in 10.0 mi North 3.5 mph - N/A   Mostly Cloudy
8:15 AM 62.6 °F 60.8 °F 94% 30.22 in 10.0 mi North 5.8 mph - N/A   Mostly Cloudy
8:55 AM 64.4 °F 62.6 °F 94% 30.24 in 10.0 mi North 4.6 mph - N/A   Overcast
9:15 AM 64.4 °F 62.6 °F 94% 30.24 in 10.0 mi North 6.9 mph - N/A   Overcast
9:35 AM 66.2 °F 64.4 °F 94% 30.25 in 10.0 mi North 9.2 mph - N/A   Overcast
10:35 AM 71.6 °F 64.4 °F 78% 30.25 in 10.0 mi NNE 6.9 mph - N/A   Overcast
10:55 AM 71.6 °F 64.4 °F 78% 30.24 in 10.0 mi NE 6.9 mph - N/A   Overcast
11:15 AM 73.4 °F 64.4 °F 73% 30.24 in 10.0 mi ENE 9.2 mph - N/A   Overcast
11:35 AM 71.6 °F 64.4 °F 78% 30.23 in 10.0 mi NNE 8.1 mph - N/A   Overcast
11:55 AM 71.6 °F 64.4 °F 78% 30.22 in 10.0 mi NE 6.9 mph - N/A   Overcast
12:15 PM 69.8 °F 64.4 °F 83% 30.21 in 7.0 mi NNE 8.1 mph - N/A   Light Drizzle
12:35 PM 69.8 °F 64.4 °F 83% 30.20 in 7.0 mi ENE 4.6 mph - N/A   Drizzle
12:55 PM 69.8 °F 64.4 °F 83% 30.19 in 10.0 mi NE 4.6 mph - N/A   Overcast
1:15 PM 69.8 °F 64.4 °F 83% 30.18 in 10.0 mi ENE 5.8 mph - N/A   Overcast
1:35 PM 69.8 °F 64.4 °F 83% 30.17 in 10.0 mi NE 4.6 mph - N/A   Overcast
1:55 PM 71.6 °F 64.4 °F 78% 30.16 in 10.0 mi NNE 6.9 mph - N/A   Overcast
2:35 PM 69.8 °F 64.4 °F 83% 30.15 in 10.0 mi NNE 8.1 mph - N/A   Overcast
2:55 PM 68.0 °F 64.4 °F 88% 30.15 in 4.0 mi East 4.6 mph - N/A Rain Heavy Rain
3:15 PM 68.0 °F 66.2 °F 94% 30.14 in 5.0 mi Calm Calm - 0.02 in   Drizzle
3:35 PM 68.0 °F 66.2 °F 94% 30.15 in 3.0 mi Calm Calm - 0.02 in Rain Heavy Rain
3:55 PM 68.0 °F 66.2 °F 94% 30.15 in 2.5 mi NE 4.6 mph - 0.05 in   Heavy Drizzle
4:15 PM 66.2 °F 64.4 °F 94% 30.15 in 5.0 mi ENE 5.8 mph - 0.01 in   Drizzle
4:35 PM 66.2 °F 64.4 °F 94% 30.14 in 2.0 mi Calm Calm - 0.04 in   Heavy Drizzle
4:55 PM 66.2 °F 64.4 °F 94% 30.14 in 7.0 mi NE 4.6 mph - 0.04 in   Overcast
5:15 PM 66.2 °F 64.4 °F 94% 30.14 in 10.0 mi NNE 4.6 mph - 0.02 in   Overcast
5:35 PM 66.2 °F 64.4 °F 94% 30.14 in 10.0 mi NNE 5.8 mph - 0.02 in   Overcast
5:55 PM 66.2 °F 64.4 °F 94% 30.15 in 10.0 mi North 5.8 mph - 0.02 in   Overcast
6:15 PM 66.2 °F 66.2 °F 100% 30.15 in 10.0 mi NNE 4.6 mph - N/A   Overcast
6:35 PM 66.2 °F 66.2 °F 100% 30.16 in 10.0 mi NNE 4.6 mph - N/A   Overcast
6:55 PM 66.2 °F 66.2 °F 100% 30.17 in 10.0 mi NNE 4.6 mph - N/A   Overcast
7:15 PM 66.2 °F 66.2 °F 100% 30.17 in 10.0 mi North 3.5 mph - N/A   Overcast
7:35 PM 66.2 °F 64.4 °F 94% 30.18 in 4.0 mi North 3.5 mph - 0.02 in Rain Rain
7:55 PM 66.2 °F 64.4 °F 94% 30.18 in 5.0 mi North 3.5 mph - 0.04 in   Drizzle
8:15 PM 66.2 °F 64.4 °F 94% 30.18 in 7.0 mi Calm Calm - N/A   Light Drizzle
8:35 PM 66.2 °F 64.4 °F 94% 30.18 in 7.0 mi NNW 4.6 mph - N/A   Overcast
8:55 PM 64.4 °F 64.4 °F 100% 30.17 in 7.0 mi North 4.6 mph - N/A   Overcast
9:15 PM 64.4 °F 64.4 °F 100% 30.17 in 7.0 mi North 4.6 mph - N/A   Overcast
9:35 PM 64.4 °F 64.4 °F 100% 30.17 in 7.0 mi NNE 4.6 mph - N/A   Mostly Cloudy
9:55 PM 64.4 °F 64.4 °F 100% 30.16 in 5.0 mi North 5.8 mph - N/A   Overcast
10:15 PM 64.4 °F 64.4 °F 100% 30.16 in 2.5 mi North 5.8 mph - N/A   Overcast
10:35 PM 64.4 °F 64.4 °F 100% 30.16 in 4.0 mi North 5.8 mph - N/A   Overcast
10:55 PM 64.4 °F 64.4 °F 100% 30.15 in 7.0 mi North 4.6 mph - N/A   Overcast
11:15 PM 64.4 °F 64.4 °F 100% 30.14 in 7.0 mi North 5.8 mph - N/A   Overcast
11:35 PM 64.4 °F 64.4 °F 100% 30.14 in 7.0 mi North 6.9 mph - N/A   Overcast
11:55 PM 64.4 °F 64.4 °F 100% 30.14 in 10.0 mi North 6.9 mph - N/A   Overcast